Date,TemperatureHighF,TemperatureAvgF,TemperatureLowF,DewpointHighF,DewpointAvgF,DewpointLowF,HumidityHigh,HumidityAvg,HumidityLow,PressureMaxIn,PressureMinIn,WindSpeedMaxMPH,WindSpeedAvgMPH,GustSpeedMaxMPH,PrecipitationSumIn
2013-1-1,49.4,46.4,43.9,48.0,41.3,30.0,98,83,56,30.10,29.92,5,0,12,0.21
2013-1-2,47.6,42.7,37.5,47.0,41.9,37.0,98,97,91,30.19,29.92,7,1,11,0.35
2013-1-3,44.2,37.8,29.8,38.0,35.7,29.0,98,92,75,30.25,30.15,5,1,6,0.00
2013-1-4,49.3,38.4,28.2,35.0,27.9,23.0,99,69,41,30.30,30.18,9,1,12,0.00
2013-1-5,49.1,37.4,27.0,34.0,27.6,23.0,90,69,43,30.39,30.26,5,1,9,0.00
2013-1-6,48.3,41.6,34.8,41.0,37.3,32.0,98,85,70,30.26,30.06,3,0,6,0.02
2013-1-7,51.8,37.4,29.5,37.0,32.3,29.0,98,84,51,30.44,30.17,11,1,11,0.00
2013-1-8,53.3,38.0,26.7,43.0,34.9,26.0,98,89,63,30.47,30.38,3,0,4,0.01
2013-1-9,68.8,48.5,32.7,54.0,44.1,32.0,99,86,56,30.44,30.34,7,0,10,0.00
2013-1-10,63.2,51.3,40.4,51.0,45.2,36.0,96,81,56,30.53,30.40,9,1,11,0.00
2013-1-11,53.4,48.3,43.6,53.0,45.4,35.0,99,90,67,30.45,30.13,7,1,8,0.24
2013-1-12,67.1,57.4,52.2,63.0,56.7,52.0,99,97,85,30.16,30.10,3,0,6,0.00
2013-1-13,74.5,61.7,55.4,64.0,59.1,55.0,99,91,68,30.14,30.05,4,0,8,0.01
2013-1-14,69.9,62.2,56.2,65.0,60.2,56.0,98,93,81,30.15,30.07,2,0,6,0.00
2013-1-15,60.4,46.3,44.3,60.0,45.7,44.0,99,97,94,30.23,30.07,10,3,15,0.01
2013-1-16,50.8,47.3,44.3,51.0,47.1,44.0,99,99,99,30.06,29.97,8,1,10,0.17
2013-1-17,51.9,46.4,32.7,52.0,46.0,33.0,99,98,96,30.09,29.91,18,4,24,1.08
2013-1-18,45.7,35.7,26.4,37.0,30.9,26.0,100,85,50,30.54,30.13,8,2,14,0.18
2013-1-19,53.9,36.5,23.3,37.0,30.1,23.0,99,81,40,30.51,30.16,5,0,8,0.00
2013-1-20,63.8,48.4,37.6,38.0,35.8,31.0,90,65,33,30.15,29.96,7,2,20,0.00
2013-1-21,59.3,43.0,27.7,36.0,30.8,22.0,98,67,34,30.08,29.85,9,1,11,0.00
2013-1-22,41.5,32.4,18.8,24.0,10.5,1.0,80,42,24,30.29,29.94,12,2,16,0.00
2013-1-23,40.4,26.7,14.7,19.0,13.6,6.0,91,62,32,30.39,30.08,8,1,12,0.00
2013-1-24,35.3,29.5,17.2,27.0,17.4,9.0,84,62,41,30.54,29.95,17,4,26,0.00
2013-1-25,27.7,23.2,15.7,27.0,18.0,9.0,95,81,47,30.54,30.11,4,0,5,0.02
2013-1-26,35.6,29.3,23.6,33.0,28.0,23.0,97,95,89,30.41,30.10,4,0,6,0.05
2013-1-27,40.8,30.0,24.4,31.0,26.8,24.0,97,89,64,30.61,30.41,8,1,13,0.03
2013-1-28,51.5,40.9,26.0,47.0,37.0,25.0,97,86,67,30.51,30.21,7,1,8,0.01
2013-1-29,73.8,58.7,48.4,59.0,53.0,46.0,95,83,58,30.22,30.07,8,2,16,0.00
2013-1-30,73.2,67.0,58.1,65.0,62.7,56.0,97,86,75,30.07,29.40,15,4,25,0.01
2013-1-31,68.5,47.5,31.6,65.0,33.6,21.0,92,61,33,30.01,29.36,16,5,40,0.33
2013-2-1,42.4,34.4,25.1,30.0,16.5,6.0,84,50,28,30.39,29.88,15,3,23,0.00
2013-2-2,43.3,31.3,15.4,37.0,15.9,9.0,91,57,29,30.41,30.04,7,1,16,0.01
2013-2-3,48.3,41.0,30.2,38.0,32.1,26.0,94,73,44,30.02,29.85,9,2,21,0.00
2013-2-4,48.2,36.7,24.4,30.0,25.4,21.0,94,67,38,30.14,29.98,5,1,10,0.00
2013-2-5,61.4,45.5,37.3,38.0,34.5,29.0,88,68,39,30.01,29.87,5,1,13,0.00
2013-2-6,61.9,44.3,30.1,39.0,32.2,26.0,97,69,26,30.29,29.96,9,1,12,0.00
2013-2-7,49.7,42.0,35.3,43.0,38.5,33.0,97,88,74,30.33,29.98,10,4,13,0.39
2013-2-8,54.9,45.8,40.5,47.0,41.4,31.0,97,86,61,30.01,29.77,13,4,22,0.80
2013-2-9,52.5,39.2,26.4,31.0,25.7,18.0,92,63,28,30.35,30.02,9,2,15,0.00
2013-2-10,53.4,37.8,22.4,40.0,26.5,21.0,95,68,33,30.49,30.23,4,0,9,0.01
2013-2-11,63.0,55.8,43.9,61.0,53.8,40.0,98,93,85,30.23,29.90,11,2,15,0.04
2013-2-12,60.7,53.3,46.9,55.0,39.3,29.0,91,63,30,30.06,29.89,8,1,12,0.00
2013-2-13,48.2,46.4,44.0,47.0,44.7,40.0,98,94,80,29.95,29.61,10,1,15,0.36
2013-2-14,51.4,40.6,29.1,39.0,35.1,28.0,98,82,58,30.07,29.81,4,0,9,0.00
2013-2-15,62.0,43.8,28.7,43.0,35.1,28.0,99,76,37,30.09,29.93,6,1,8,0.00
2013-2-16,45.9,37.0,31.6,37.0,34.2,31.0,98,90,70,29.96,29.81,11,2,11,0.18
2013-2-17,35.9,29.3,22.3,30.0,18.6,12.0,97,67,37,30.28,29.89,17,3,24,0.00
2013-2-18,51.8,33.4,17.0,28.0,20.6,15.0,95,65,30,30.43,30.28,7,1,9,0.04
2013-2-19,54.0,44.1,33.6,52.0,40.2,27.0,96,86,73,30.27,29.84,11,2,17,0.07
2013-2-20,52.7,41.6,33.3,40.0,22.8,15.0,96,51,23,30.14,29.94,12,2,20,0.00
2013-2-21,54.1,39.8,23.9,29.0,22.1,18.0,92,52,28,30.27,30.11,9,2,10,0.00
2013-2-22,40.3,36.1,31.6,36.0,31.8,22.0,97,86,49,30.35,30.14,10,2,10,0.37
2013-2-23,43.6,40.2,36.4,43.0,39.7,36.0,98,98,97,30.14,29.81,7,1,9,0.77
2013-2-24,61.6,48.7,37.7,47.0,41.0,33.0,99,79,35,30.02,29.78,8,1,13,0.30
2013-2-25,41.8,36.6,30.3,34.0,26.8,24.0,89,68,51,30.22,30.03,10,2,14,0.00
2013-2-26,60.3,46.0,34.7,60.0,43.5,28.0,99,91,75,30.15,29.56,9,3,16,1.05
2013-2-27,60.9,48.8,39.4,47.0,41.8,38.0,99,79,47,29.76,29.60,11,2,16,0.00
2013-2-28,48.5,41.7,35.6,39.0,33.6,29.0,98,75,50,29.84,29.68,9,1,15,0.00
2013-3-1,48.7,40.7,32.0,34.0,30.3,28.0,86,68,48,29.90,29.82,8,1,12,0.00
2013-3-2,48.1,39.9,29.7,33.0,27.8,22.0,92,63,46,29.90,29.80,7,2,13,0.00
2013-3-3,46.4,36.5,28.9,25.0,22.3,18.0,74,57,41,29.97,29.82,10,2,17,0.00
2013-3-4,49.7,35.5,25.9,26.0,19.1,16.0,83,54,27,30.09,29.96,10,2,15,0.00
2013-3-5,53.6,42.2,30.0,44.0,36.0,25.0,97,81,43,30.09,29.59,7,1,11,0.36
2013-3-6,44.4,40.6,36.8,44.0,35.6,30.0,99,83,67,29.99,29.47,21,6,33,0.01
2013-3-7,49.0,41.8,33.1,35.0,31.5,29.0,88,68,53,30.21,29.99,12,2,15,0.00
2013-3-8,54.8,43.3,31.0,31.0,28.1,25.0,83,58,36,30.26,30.12,15,3,21,0.00
2013-3-9,61.5,45.0,33.3,38.0,31.1,28.0,92,62,33,30.32,30.23,11,2,14,0.00
2013-3-10,66.1,46.8,28.7,40.0,30.1,23.0,98,61,20,30.32,30.21,8,1,11,0.00
2013-3-11,70.3,55.1,37.5,53.0,46.6,34.0,97,75,51,30.25,29.96,6,1,14,0.00
2013-3-12,71.0,61.7,50.5,64.0,55.8,36.0,97,82,59,29.95,29.72,8,2,14,0.50
2013-3-13,56.8,47.4,33.7,37.0,30.6,21.0,93,55,31,30.10,29.92,12,3,20,0.00
2013-3-14,53.1,39.9,29.3,29.0,21.8,19.0,79,51,28,30.22,30.09,12,3,17,0.00
2013-3-15,61.5,45.5,29.2,37.0,28.4,21.0,86,54,35,30.18,29.89,11,2,18,0.00
2013-3-16,78.5,61.5,47.7,52.0,45.7,37.0,75,58,36,29.89,29.63,7,2,18,0.00
2013-3-17,58.4,50.3,40.2,53.0,45.2,38.0,95,83,71,30.18,29.81,11,4,21,0.00
2013-3-18,43.3,40.4,37.6,43.0,39.7,37.0,98,97,95,30.20,29.90,10,2,14,0.15
2013-3-19,67.1,52.5,40.5,49.0,36.0,20.0,99,63,20,30.00,29.80,13,2,18,0.01
2013-3-20,55.0,45.8,35.6,30.0,18.9,10.0,75,37,22,30.11,29.79,10,1,10,0.00
2013-3-21,44.8,38.5,30.9,33.0,23.2,13.0,86,56,31,29.96,29.71,14,3,20,0.00
2013-3-22,51.5,35.3,22.3,28.0,18.1,14.0,83,53,25,30.07,29.96,10,2,14,0.00
2013-3-23,56.9,43.4,32.3,35.0,28.9,21.0,90,60,31,30.05,29.91,6,0,8,0.00
2013-3-24,40.4,37.3,30.9,38.0,35.1,29.0,96,92,80,29.93,29.57,16,4,17,0.68
2013-3-25,47.9,40.0,35.2,39.0,32.4,25.0,97,77,44,29.79,29.54,10,2,22,0.01
2013-3-26,49.4,42.3,34.0,34.0,29.1,26.0,76,60,47,30.08,29.79,9,3,12,0.00
2013-3-27,51.9,42.2,32.5,30.0,26.8,23.0,83,57,35,30.20,30.09,13,2,21,0.00
2013-3-28,56.3,43.2,32.6,30.0,27.0,25.0,79,56,32,30.28,30.13,11,2,23,0.00
2013-3-29,59.8,44.1,28.6,35.0,29.6,27.0,93,62,31,30.32,30.17,9,1,13,0.00
2013-3-30,66.8,48.6,32.5,44.0,35.8,30.0,93,66,31,30.24,30.08,6,1,11,0.00
2013-3-31,67.4,56.0,48.0,58.0,51.1,43.0,97,84,71,30.10,29.79,8,1,14,0.44
2013-4-1,72.1,60.4,53.6,55.0,47.8,40.0,99,69,34,29.94,29.78,8,2,15,0.01
2013-4-2,60.2,48.6,34.0,38.0,29.9,25.0,90,52,26,30.15,29.95,13,2,16,0.00
2013-4-3,59.4,47.3,36.5,37.0,27.5,21.0,91,50,25,30.29,30.13,7,2,12,0.00
2013-4-4,49.4,42.2,38.8,41.0,34.7,27.0,96,77,51,30.36,29.91,11,4,19,0.79
2013-4-5,63.2,47.8,38.9,49.0,43.3,38.0,97,86,57,30.00,29.84,9,2,12,0.04
2013-4-6,63.0,51.1,40.0,43.0,35.3,25.0,98,60,32,30.29,30.00,9,2,14,0.00
2013-4-7,72.2,54.0,32.0,51.0,41.2,31.0,97,66,37,30.29,30.11,10,1,12,0.00
2013-4-8,79.2,64.7,52.9,59.0,54.2,50.0,96,72,42,30.16,30.04,7,2,14,0.00
2013-4-9,84.7,70.5,57.5,63.0,58.5,55.0,96,69,41,30.16,30.04,6,1,11,0.00
2013-4-10,87.2,73.5,61.0,64.0,61.0,58.0,91,68,42,30.08,29.92,10,2,14,0.00
2013-4-11,82.8,71.0,61.5,67.0,61.5,58.0,94,74,46,29.98,29.80,9,2,17,0.00
2013-4-12,81.1,71.2,64.1,70.0,66.4,61.0,96,85,63,29.81,29.59,10,2,14,0.38
2013-4-13,74.7,63.5,51.2,55.0,45.0,40.0,83,53,30,29.99,29.73,6,2,12,0.00
2013-4-14,80.0,65.1,46.6,53.0,47.9,42.0,98,60,27,30.10,29.99,5,1,9,0.00
2013-4-15,70.3,64.3,58.7,60.0,57.1,50.0,93,78,62,30.21,30.02,13,3,15,0.00
2013-4-16,78.2,63.5,53.8,64.0,59.0,53.0,98,86,56,30.30,30.19,4,1,7,0.00
2013-4-17,83.2,69.4,55.3,67.0,62.2,55.0,98,80,54,30.22,30.09,5,1,10,0.00
2013-4-18,80.0,68.9,58.3,65.0,61.0,57.0,97,78,52,30.19,30.04,7,1,10,0.00
2013-4-19,82.5,70.9,64.1,71.0,66.6,61.0,97,87,66,30.04,29.73,7,2,29,0.77
2013-4-20,65.4,55.1,43.1,65.0,44.4,36.0,97,70,38,30.26,29.79,13,2,15,0.16
2013-4-21,60.2,49.7,38.6,44.0,40.7,37.0,98,74,47,30.49,30.27,13,4,20,0.00
2013-4-22,59.8,47.8,36.2,47.0,41.5,34.0,93,80,59,30.49,30.26,13,5,17,0.01
2013-4-23,68.0,54.1,47.2,55.0,48.6,46.0,96,83,57,30.25,30.12,11,3,13,0.02
2013-4-24,77.2,62.0,46.3,59.0,53.8,46.0,98,77,48,30.15,29.96,7,1,14,0.00
2013-4-25,70.5,60.5,50.2,59.0,51.2,43.0,95,73,51,30.27,30.00,12,2,13,0.00
2013-4-26,72.5,57.4,42.8,54.0,45.5,39.0,98,70,31,30.41,30.27,7,1,12,0.00
2013-4-27,74.1,61.4,48.9,54.0,48.2,44.0,94,65,35,30.38,30.25,7,1,8,0.00
2013-4-28,64.8,58.2,52.3,58.0,51.0,45.0,95,78,60,30.28,30.11,0,0,0,0.21
2013-4-29,71.3,62.3,54.5,66.0,60.4,53.0,98,93,80,30.11,29.96,0,0,0,1.49
2013-4-30,66.2,60.9,56.9,61.0,59.1,56.0,99,94,79,30.15,29.99,7,1,10,0.01
2013-5-1,60.7,58.6,57.1,59.0,57.2,56.0,97,95,92,30.32,30.14,11,4,20,0.02
2013-5-2,63.2,58.9,53.0,59.0,56.2,51.0,97,91,81,30.33,30.24,13,3,13,0.00
2013-5-3,69.7,57.0,48.5,58.0,49.9,45.0,97,79,50,30.26,30.17,14,4,17,0.00
2013-5-4,63.5,54.9,49.1,55.0,50.4,46.0,93,85,72,30.21,30.08,15,6,16,0.00
2013-5-5,60.0,55.0,49.0,57.0,52.5,47.0,94,91,86,30.11,29.99,11,5,19,0.00
2013-5-6,70.6,61.8,55.9,67.0,60.1,55.0,98,94,83,30.01,29.82,11,3,15,0.42
2013-5-7,72.8,61.8,50.2,61.0,55.5,49.0,98,82,46,29.94,29.84,8,1,10,0.00
2013-5-8,73.1,61.0,49.0,62.0,56.4,48.0,98,86,61,30.00,29.91,7,1,15,0.46
2013-5-9,80.6,65.4,52.1,64.0,58.3,52.0,99,80,48,30.05,29.96,7,1,10,0.01
2013-5-10,86.3,72.0,56.1,66.0,61.4,55.0,97,72,45,30.05,29.93,6,1,13,0.00
2013-5-11,83.1,72.8,65.8,67.0,64.4,61.0,97,76,52,29.95,29.77,10,2,16,0.04
2013-5-12,72.9,65.7,50.6,65.0,53.9,41.0,97,68,38,30.01,29.77,12,2,14,0.01
2013-5-13,65.6,55.9,47.5,48.0,41.1,35.0,89,61,34,30.17,30.01,10,2,16,0.00
2013-5-14,70.8,56.0,38.9,50.0,41.4,36.0,96,63,32,30.26,30.08,7,1,10,0.00
2013-5-15,87.9,70.0,53.0,65.0,56.9,46.0,81,65,41,30.09,29.87,8,2,14,0.00
2013-5-16,85.3,75.6,64.7,67.0,61.8,57.0,88,65,42,29.95,29.87,9,1,12,0.00
2013-5-17,88.8,74.2,59.6,70.0,63.3,58.0,97,71,43,30.07,29.95,3,0,9,0.00
2013-5-18,74.8,69.3,63.2,71.0,66.6,62.0,97,91,82,30.14,30.05,5,1,7,0.45
2013-5-19,81.3,69.6,64.5,72.0,67.3,64.0,98,92,63,30.15,30.06,7,0,13,0.39
2013-5-20,79.0,70.0,66.7,72.0,68.6,66.0,99,95,78,30.12,30.03,7,1,9,3.01
2013-5-21,82.4,72.4,67.4,75.0,70.2,67.0,99,93,77,30.04,29.94,7,1,13,0.15
2013-5-22,85.4,74.0,68.2,73.0,69.2,67.0,98,86,60,30.02,29.91,6,1,11,0.03
2013-5-23,84.3,71.4,66.8,73.0,68.3,66.0,98,90,61,29.96,29.81,6,0,10,0.82
2013-5-24,70.0,64.0,47.8,67.0,56.1,41.0,99,78,46,30.16,29.78,15,2,21,0.01
2013-5-25,72.5,56.0,39.6,52.0,43.5,39.0,97,68,30,30.26,30.13,8,1,15,0.00
2013-5-26,73.6,58.6,44.5,55.0,47.1,43.0,94,70,36,30.27,30.17,4,0,10,0.00
2013-5-27,80.6,65.2,46.9,59.0,53.4,46.0,98,70,41,30.28,30.16,5,0,11,0.00
2013-5-28,84.5,71.8,58.6,69.0,63.2,55.0,91,75,57,30.25,30.14,7,1,11,0.00
2013-5-29,86.2,73.9,61.6,69.0,65.3,60.0,96,76,54,30.23,30.15,7,1,12,0.00
2013-5-30,88.4,74.9,60.5,71.0,66.1,59.0,97,77,47,30.26,30.16,6,1,9,0.00
2013-5-31,88.6,77.1,65.3,73.0,68.9,65.0,97,78,47,30.21,30.09,6,1,9,0.00
2013-6-1,87.9,77.4,67.2,72.0,69.0,66.0,97,77,52,30.13,30.01,6,1,11,0.00
2013-6-2,87.4,77.1,67.8,72.0,68.7,66.0,95,76,53,30.05,29.89,8,2,12,0.00
2013-6-3,79.4,74.3,67.4,75.0,71.7,66.0,97,92,83,29.95,29.83,4,1,8,0.50
2013-6-4,79.3,71.2,63.6,67.0,64.9,61.0,98,82,58,30.09,29.91,8,2,17,0.00
2013-6-5,81.4,69.6,57.8,67.0,61.4,57.0,98,77,52,30.14,30.02,5,1,10,0.00
2013-6-6,76.1,69.2,62.2,73.0,67.1,59.0,98,93,84,30.05,29.83,6,1,9,0.89
2013-6-7,79.5,71.7,68.6,78.0,70.8,68.0,99,97,89,29.85,29.46,16,2,26,3.80
2013-6-8,84.2,74.4,68.3,74.0,70.4,68.0,99,88,65,30.07,29.81,5,1,12,0.15
2013-6-9,88.8,76.6,65.8,76.0,71.4,65.0,99,85,62,30.15,30.05,4,0,11,0.11
2013-6-10,84.1,75.0,71.0,77.0,72.8,70.0,98,93,77,30.09,29.89,9,1,13,0.78
2013-6-11,84.8,75.6,68.6,72.0,69.0,67.0,98,82,56,29.94,29.87,10,2,13,0.00
2013-6-12,89.7,77.7,64.9,78.0,70.9,64.0,98,81,57,29.95,29.85,7,1,12,0.00
2013-6-13,94.2,80.3,68.9,79.0,73.0,64.0,95,80,47,29.85,29.56,6,1,23,0.06
2013-6-14,78.9,70.6,58.8,67.0,60.3,57.0,95,71,50,30.00,29.69,15,3,19,0.00
2013-6-15,84.7,70.8,56.8,69.0,62.3,56.0,98,77,48,30.11,30.00,6,1,9,0.00
2013-6-16,86.6,75.1,63.8,72.0,65.5,58.0,88,73,58,30.11,29.98,8,2,16,0.00
2013-6-17,86.4,77.2,70.1,76.0,70.3,65.0,89,79,63,30.02,29.91,5,1,11,0.00
2013-6-18,84.8,74.9,69.4,75.0,71.6,68.0,98,89,70,29.95,29.71,8,1,11,1.31
2013-6-19,78.1,71.1,64.7,70.0,67.3,64.0,98,88,75,30.11,29.85,9,2,11,0.00
2013-6-20,79.9,69.9,60.7,65.0,62.5,56.0,98,79,57,30.24,30.11,10,2,11,0.00
2013-6-21,81.8,68.8,53.2,70.0,61.7,52.0,98,80,54,30.25,30.17,8,2,12,0.00
2013-6-22,78.3,71.5,67.8,74.0,69.7,67.0,98,94,79,30.21,30.08,7,2,10,0.91
2013-6-23,86.7,75.9,67.2,79.0,72.5,67.0,99,90,73,30.20,30.12,4,0,7,0.01
2013-6-24,86.9,77.7,72.6,78.0,73.9,71.0,97,88,69,30.19,30.07,4,1,9,0.03
2013-6-25,87.5,75.3,71.1,79.0,72.2,70.0,97,90,72,30.11,29.99,7,1,11,0.01
2013-6-26,89.5,76.9,68.6,78.0,72.5,68.0,98,87,62,30.01,29.88,11,2,13,0.10
2013-6-27,89.2,76.7,67.9,78.0,72.5,67.0,98,87,64,29.89,29.70,7,1,13,0.00
2013-6-28,90.6,78.5,71.1,79.0,73.6,69.0,97,86,63,29.74,29.56,8,2,12,0.22
2013-6-29,86.7,76.4,68.6,77.0,72.8,68.0,99,89,69,29.73,29.59,6,1,17,1.15
2013-6-30,85.7,76.7,69.6,78.0,73.8,69.0,99,91,76,29.88,29.71,5,1,11,2.09
2013-7-1,80.5,74.5,70.2,77.0,73.4,70.0,100,96,88,30.00,29.84,5,1,12,0.47
2013-7-2,80.1,73.8,71.0,77.0,72.7,70.0,99,96,85,30.19,29.99,10,1,16,1.19
2013-7-3,84.8,76.5,72.2,79.0,74.7,72.0,99,94,79,30.25,30.15,4,1,11,1.31
2013-7-4,88.4,78.8,72.1,78.0,74.4,71.0,99,87,64,30.28,30.18,7,1,11,0.00
2013-7-5,90.4,79.8,71.3,79.0,74.6,71.0,99,85,63,30.27,30.15,4,0,10,0.00
2013-7-6,89.8,78.0,71.3,78.0,73.6,71.0,99,87,62,30.25,30.11,4,0,7,0.00
2013-7-7,89.8,78.8,68.9,78.0,73.5,68.0,98,85,58,30.18,30.05,5,1,10,0.00
2013-7-8,85.3,76.7,71.1,79.0,74.0,70.0,99,91,73,30.15,30.08,6,1,8,2.15
2013-7-9,88.9,76.5,70.1,81.0,74.3,70.0,99,93,71,30.15,30.06,4,0,10,0.43
2013-7-10,87.2,78.8,72.9,81.0,75.7,73.0,99,90,75,30.09,29.94,7,1,11,0.01
2013-7-11,85.0,75.8,72.8,78.0,73.6,72.0,99,93,76,29.97,29.88,5,1,12,0.27
2013-7-12,74.7,72.6,70.7,73.0,71.8,70.0,99,97,89,30.00,29.86,7,0,9,1.11
2013-7-13,83.6,74.2,70.7,78.0,73.2,70.0,99,96,81,30.18,30.01,5,1,9,0.56
2013-7-14,87.1,76.9,68.1,79.0,73.5,68.0,100,90,72,30.29,30.19,8,1,16,0.01
2013-7-15,89.6,77.5,67.4,78.0,72.7,67.0,100,87,62,30.31,30.23,6,0,7,0.00
2013-7-16,93.7,80.8,69.4,82.0,75.1,69.0,99,84,58,30.25,30.16,4,0,8,0.01
2013-7-17,91.9,82.9,73.4,80.0,76.0,73.0,99,81,56,30.20,30.08,5,1,7,0.00
2013-7-18,94.8,83.3,72.1,83.0,76.8,72.0,99,82,58,30.13,30.02,3,0,4,0.00
2013-7-19,91.3,81.5,73.7,80.0,76.2,73.0,98,85,65,30.08,29.96,6,1,10,0.00
2013-7-20,88.9,79.8,74.6,79.0,75.3,73.0,96,86,69,30.02,29.90,5,2,12,0.00
2013-7-21,89.2,78.2,72.5,80.0,74.6,71.0,97,89,69,29.98,29.89,5,1,13,0.00
2013-7-22,87.8,78.8,70.9,79.0,74.7,70.0,99,88,70,29.94,29.80,7,1,11,0.00
2013-7-23,88.8,80.3,73.8,79.0,74.9,73.0,97,84,64,29.83,29.70,10,2,13,0.05
2013-7-24,95.2,80.2,71.2,78.0,73.4,70.0,98,82,50,29.83,29.71,5,1,13,0.10
2013-7-25,80.8,72.6,67.3,73.0,70.1,67.0,98,92,74,30.01,29.81,7,2,9,0.17
2013-7-26,85.5,72.9,60.7,73.0,66.4,61.0,99,82,55,30.10,30.00,3,0,8,0.00
2013-7-27,85.8,74.4,64.7,75.0,70.1,64.0,99,88,62,30.05,29.93,5,0,8,0.14
2013-7-28,86.6,77.7,71.3,78.0,73.7,71.0,99,88,67,29.99,29.90,5,0,8,0.01
2013-7-29,87.7,77.2,70.9,75.0,72.2,68.0,98,86,59,30.13,29.97,5,1,7,0.01
2013-7-30,88.6,75.3,62.9,75.0,69.1,62.0,99,83,51,30.20,30.12,7,0,7,0.00
2013-7-31,84.3,75.8,69.5,76.0,72.5,69.0,99,90,71,30.14,30.00,2,0,8,0.00
2013-8-1,85.3,75.6,70.9,77.0,73.0,70.0,99,92,75,30.00,29.84,4,0,6,0.30
2013-8-2,89.9,78.4,66.8,78.0,72.3,66.0,99,83,59,30.00,29.88,3,0,7,0.01
2013-8-3,89.1,77.9,70.1,81.0,74.7,70.0,99,90,71,30.00,29.89,11,1,12,0.11
2013-8-4,83.1,73.4,62.8,74.0,68.0,62.0,100,85,56,30.02,29.87,9,2,13,0.00
2013-8-5,82.7,70.8,59.6,72.0,64.9,59.0,99,84,52,30.09,30.00,5,0,8,0.00
2013-8-6,83.8,73.5,66.4,73.0,68.6,65.0,98,85,64,30.06,29.99,3,0,9,0.09
2013-8-7,88.1,76.6,65.2,75.0,70.6,65.0,99,83,58,30.10,30.01,4,0,11,0.00
2013-8-8,90.2,78.8,68.6,78.0,72.9,68.0,99,84,57,30.05,29.98,6,0,8,0.00
2013-8-9,91.5,81.3,73.8,79.0,75.9,73.0,99,85,62,30.03,29.95,6,1,13,0.01
2013-8-10,93.8,79.4,71.2,81.0,75.6,70.0,100,89,61,30.08,29.98,7,1,25,0.93
2013-8-11,91.8,78.0,71.2,81.0,74.6,70.0,100,91,63,30.09,29.98,6,0,20,1.50
2013-8-12,92.0,80.2,71.1,80.0,75.1,71.0,100,86,59,30.03,29.92,4,1,7,0.00
2013-8-13,89.1,78.6,71.1,79.0,75.3,71.0,99,90,70,29.96,29.75,7,1,16,0.80
2013-8-14,73.6,70.2,59.5,73.0,66.3,59.0,99,88,71,30.08,29.79,12,2,14,0.00
2013-8-15,75.2,64.4,58.0,66.0,60.4,58.0,99,88,56,30.15,30.07,7,1,10,0.01
2013-8-16,72.0,65.2,56.5,66.0,62.0,56.0,99,90,73,30.17,30.09,8,1,10,0.00
2013-8-17,73.1,68.2,62.0,73.0,67.5,62.0,99,97,93,30.16,30.09,6,2,11,0.22
2013-8-18,82.6,74.1,67.4,75.0,70.9,67.0,100,90,72,30.19,30.10,6,1,10,0.00
2013-8-19,74.7,69.8,66.5,73.0,68.9,66.0,99,97,90,30.19,30.09,4,0,5,0.39
2013-8-20,82.2,74.1,67.9,76.0,72.1,68.0,100,93,77,30.18,30.09,2,0,4,0.00
2013-8-21,88.1,76.0,69.7,79.0,73.7,69.0,100,93,71,30.22,30.09,3,0,6,0.10
2013-8-22,90.8,76.0,69.3,78.0,72.2,68.0,99,89,57,30.13,29.97,4,1,7,0.01
2013-8-23,87.7,76.7,67.7,76.0,71.8,67.0,99,86,62,30.04,29.90,8,1,12,0.00
2013-8-24,80.8,71.4,61.9,69.0,64.5,61.0,98,80,55,30.29,30.04,13,3,14,0.00
2013-8-25,77.8,67.0,57.7,66.0,61.4,58.0,100,84,56,30.38,30.28,8,2,12,0.00
2013-8-26,84.2,67.2,51.8,69.0,61.1,52.0,100,83,53,30.31,30.10,4,0,7,0.01
2013-8-27,88.0,72.8,59.7,77.0,67.9,59.0,98,86,60,30.11,29.95,3,0,6,0.00
2013-8-28,83.0,75.5,69.9,78.0,73.8,70.0,99,95,78,29.97,29.85,3,0,5,0.03
2013-8-29,83.7,77.0,69.0,77.0,74.0,69.0,98,90,75,30.00,29.81,6,2,10,0.10
2013-8-30,88.3,73.6,64.5,75.0,68.9,64.0,100,87,60,30.05,29.93,4,1,8,0.00
2013-8-31,87.8,75.8,66.4,76.0,71.1,66.0,99,87,63,29.97,29.86,6,1,8,0.01
2013-9-1,87.1,76.2,71.1,80.0,74.0,71.0,99,93,73,29.89,29.78,6,1,15,1.80
2013-9-2,89.5,77.5,70.0,80.0,74.7,70.0,100,92,70,29.87,29.78,3,1,7,0.01
2013-9-3,83.6,74.6,68.1,79.0,73.1,66.0,100,95,71,29.92,29.78,9,0,17,0.56
2013-9-4,85.4,74.0,67.4,78.0,70.4,67.0,100,89,68,30.07,29.92,8,1,10,0.00
2013-9-5,86.8,74.1,63.7,74.0,68.5,63.0,100,85,48,30.08,30.00,6,1,8,0.00
2013-9-6,81.7,70.5,62.3,69.0,64.3,60.0,99,82,56,30.16,30.06,6,1,9,0.00
2013-9-7,83.4,68.1,55.9,70.0,62.8,56.0,100,85,58,30.13,29.97,4,0,6,0.01
2013-9-8,86.9,72.4,61.4,73.0,66.5,61.0,99,84,51,29.98,29.89,4,0,7,0.00
2013-9-9,88.6,74.4,63.6,77.0,69.9,63.0,100,87,63,30.15,29.98,6,1,9,0.00
2013-9-10,88.9,76.3,65.0,76.0,71.1,65.0,100,86,58,30.22,30.14,5,0,6,0.01
2013-9-11,88.7,75.7,65.8,77.0,70.8,66.0,99,86,60,30.19,30.06,4,0,7,0.00
2013-9-12,89.8,76.6,66.8,78.0,71.3,66.0,99,85,61,30.07,29.79,5,1,11,0.01
2013-9-13,84.3,74.6,62.8,70.0,66.9,61.0,98,79,51,29.86,29.73,7,1,12,0.00
2013-9-14,76.2,64.5,55.3,61.0,55.1,51.0,97,74,48,30.13,29.86,11,2,13,0.00
2013-9-15,81.3,64.4,48.9,67.0,58.1,49.0,99,82,52,30.23,30.12,4,0,6,0.00
2013-9-16,84.8,72.1,61.9,74.0,66.0,61.0,99,83,48,30.18,30.02,7,1,11,0.08
2013-9-17,74.5,65.3,56.2,61.0,57.1,53.0,96,77,52,30.31,30.18,12,3,14,0.00
2013-9-18,73.7,58.8,46.2,61.0,53.3,46.0,99,84,51,30.29,30.17,6,1,9,0.00
2013-9-19,77.8,63.6,50.5,65.0,58.2,50.0,99,85,55,30.19,30.08,4,0,6,0.00
2013-9-20,74.6,67.1,62.8,69.0,64.9,61.0,98,92,79,30.10,29.97,3,0,8,0.01
2013-9-21,76.3,69.6,64.7,72.0,68.3,64.0,99,96,85,29.97,29.71,5,0,7,1.84
2013-9-22,75.9,67.6,60.0,69.0,63.7,57.0,100,88,65,29.88,29.70,12,2,16,1.26
2013-9-23,73.2,60.4,52.1,61.0,55.2,51.0,98,84,60,30.07,29.89,1,0,2,0.00
2013-9-24,74.5,60.9,49.2,65.0,56.7,49.0,99,87,61,30.10,29.95,0,0,1,0.01
2013-9-25,74.3,62.3,50.0,65.0,59.1,50.0,100,90,63,29.96,29.86,0,0,1,0.00
2013-9-26,75.5,64.7,55.7,64.0,59.8,55.0,100,86,53,30.03,29.86,12,1,12,0.00
2013-9-27,72.3,60.5,51.6,63.0,56.3,51.0,100,88,62,30.18,30.03,9,1,13,0.01
2013-9-28,72.8,60.9,50.8,61.0,56.5,51.0,100,86,65,30.24,30.15,8,2,12,0.01
2013-9-29,74.1,61.2,50.7,62.0,56.9,51.0,100,87,60,30.16,30.02,6,1,11,0.00
2013-9-30,76.2,61.1,52.0,63.0,56.3,52.0,100,86,49,30.09,29.99,5,1,8,0.01
2013-10-1,82.8,64.3,49.6,67.0,58.9,49.0,100,85,53,30.12,30.01,4,0,7,0.00
2013-10-2,84.3,68.5,55.3,69.0,62.5,55.0,99,84,50,30.12,30.03,4,0,7,0.00
2013-10-3,85.0,69.8,58.0,71.0,64.9,58.0,100,86,54,30.12,30.05,4,0,7,0.01
2013-10-4,86.0,71.9,61.8,71.0,66.4,62.0,99,85,55,30.12,30.04,4,0,8,0.00
2013-10-5,89.3,73.9,61.5,74.0,67.5,61.0,100,83,49,30.10,30.02,3,0,7,0.00
2013-10-6,81.8,71.7,63.3,75.0,68.9,63.0,99,91,75,30.06,29.94,6,1,9,0.01
2013-10-7,76.9,70.9,65.2,74.0,70.1,63.0,99,97,89,29.97,29.85,5,1,13,1.78
2013-10-8,65.0,59.0,56.7,62.0,53.7,50.0,94,83,70,30.18,29.96,13,4,21,0.03
2013-10-9,61.7,57.9,55.3,58.0,55.3,53.0,98,91,86,30.16,30.04,15,5,18,0.05
2013-10-10,59.4,56.7,54.1,59.0,56.3,54.0,99,98,95,30.03,29.91,14,4,18,0.27
2013-10-11,64.4,61.1,57.9,63.0,60.3,58.0,99,97,93,29.95,29.88,8,2,11,0.01
2013-10-12,69.5,64.3,60.9,67.0,63.5,61.0,99,97,90,30.06,29.93,8,1,8,0.01
2013-10-13,68.0,64.4,61.9,67.0,64.1,62.0,100,98,94,30.18,30.05,7,3,10,0.07
2013-10-14,66.8,49.8,58.8,64.0,26.8,-99.9,100,74,87,30.22,30.15,12,-216,13,0.07
2013-10-15,70.2,37.5,51.7,65.0,-5.7,-99.9,100,53,81,30.18,30.05,8,-415,12,0.01
2013-10-16,71.3,37.0,62.4,66.0,-10.0,-99.9,100,49,79,30.05,29.95,3,-452,4,0.00
2013-10-17,77.0,38.9,61.4,70.0,-8.6,-99.9,100,48,73,29.96,29.82,3,-452,7,0.00
2013-10-18,68.6,35.2,56.0,59.0,-12.9,-99.9,97,43,63,30.03,29.87,6,-436,10,0.00
2013-10-19,68.3,32.4,61.8,67.0,-18.5,-99.9,100,48,93,29.97,29.81,0,-505,0,0.01
2013-10-20,67.3,32.3,43.7,51.0,-15.9,-99.9,98,41,52,30.12,29.89,8,-426,14,0.00
2013-10-21,67.4,32.6,37.9,53.0,-16.0,-99.9,100,42,48,30.16,30.00,5,-437,7,0.00
2013-10-22,64.7,31.0,53.2,61.0,-19.2,-99.9,100,47,84,30.00,29.80,2,-489,5,0.00
2013-10-23,67.2,34.3,52.1,60.0,-15.3,-99.9,99,39,46,29.97,29.68,9,-430,14,0.00
2013-10-24,58.4,27.5,36.6,43.0,-25.2,-99.9,95,35,45,30.17,29.98,8,-458,12,0.00
2013-10-25,55.3,27.9,33.5,38.0,-20.5,-99.9,96,38,41,30.35,30.18,10,-404,12,0.00
2013-10-26,59.7,29.3,29.3,42.0,-18.9,-99.9,99,39,42,30.34,30.07,7,-409,13,0.00
2013-10-27,67.5,34.6,40.5,49.0,-11.9,-99.9,100,41,44,30.13,30.04,6,-390,10,0.00
2013-10-28,70.9,35.4,47.1,58.0,-11.0,-99.9,100,46,56,30.25,30.12,5,-426,6,0.00
2013-10-29,72.9,36.4,51.6,60.0,-9.1,-99.9,100,48,57,30.32,30.23,4,-420,5,0.00
2013-10-30,72.7,35.9,53.4,63.0,-11.5,-99.9,100,47,70,30.30,30.15,4,-447,6,0.00
2013-10-31,75.8,39.4,55.4,64.0,-6.7,-99.9,99,46,63,30.19,29.93,7,-420,10,0.00
2013-11-1,74.8,36.1,65.8,68.0,-13.7,-99.9,100,47,76,29.93,29.68,8,-483,13,0.00
2013-11-2,70.5,34.9,54.6,58.0,-17.1,-99.9,93,36,45,29.91,29.67,8,-451,12,0.00
2013-11-3,62.2,29.7,43.2,45.0,-23.5,-99.9,93,34,45,30.36,29.91,10,-458,15,0.00
2013-11-4,54.1,27.1,37.1,40.0,-21.8,-99.9,92,39,46,30.55,30.36,8,-423,14,0.00
2013-11-5,57.0,29.2,42.5,51.0,-17.6,-99.9,92,47,76,30.53,30.42,8,-440,10,0.00
2013-11-6,70.1,35.3,46.9,61.0,-10.4,-99.9,100,48,64,30.42,30.11,5,-424,9,0.00
2013-11-7,69.6,36.7,50.9,65.0,-9.0,-99.9,99,47,57,30.11,29.89,7,-420,12,0.00
2013-11-8,57.2,29.4,33.8,37.0,-17.4,-99.9,95,38,37,30.32,30.09,8,-378,12,0.00
2013-11-9,59.4,30.0,29.4,42.0,-16.6,-99.9,99,41,40,30.38,30.18,5,-395,8,0.00
2013-11-10,71.5,35.4,42.3,44.0,-18.2,-99.9,85,29,30,30.22,30.04,9,-415,18,0.00
2013-11-11,59.5,26.4,33.6,38.0,-28.1,-99.9,96,32,39,30.34,30.14,6,-467,8,0.00
2013-11-12,59.2,24.9,34.1,43.0,-29.6,-99.9,91,34,47,30.40,30.04,19,-480,19,0.00
2013-11-13,44.3,23.3,27.3,25.0,-25.6,-99.9,87,33,37,30.51,30.40,17,-385,23,0.00
2013-11-14,57.5,36.3,37.5,33.0,-5.4,-99.9,78,35,31,30.45,30.34,11,-263,11,0.00
2013-11-15,65.6,32.0,32.3,50.0,-17.8,-99.9,93,38,46,30.36,30.21,4,-431,6,0.00
2013-11-16,63.4,32.4,49.8,60.0,-12.4,-99.9,100,52,87,30.27,30.20,3,-437,5,0.00
2013-11-17,72.4,35.6,54.9,63.0,-12.7,-99.9,100,46,71,30.21,29.89,5,-458,7,0.05
2013-11-18,75.7,38.7,56.3,64.0,-11.6,-99.9,98,36,43,29.93,29.78,8,-420,9,0.05
2013-11-19,55.3,28.3,38.0,35.0,-23.4,-99.9,89,32,39,30.32,29.93,11,-419,17,0.00
2013-11-20,51.0,26.2,38.2,41.0,-23.6,-99.9,82,38,57,30.45,30.32,8,-440,13,0.00
2013-11-21,62.3,29.1,42.2,54.0,-21.8,-99.9,96,42,68,30.50,30.37,7,-461,8,0.00
2013-11-22,71.6,36.6,48.8,63.0,-8.9,-99.9,100,49,73,30.38,30.07,6,-429,13,0.00
2013-11-23,58.6,29.8,50.5,52.0,-22.2,-99.9,89,38,43,30.15,30.01,7,-468,8,0.00
2013-11-24,36.9,17.7,23.1,15.0,-40.3,-99.9,71,21,27,30.55,30.15,13,-450,18,0.00
2013-11-25,42.1,19.4,18.8,19.0,-37.9,-99.9,95,23,29,30.61,30.46,6,-450,7,0.00
2013-11-26,59.5,28.8,41.2,59.0,-11.8,-99.9,99,57,81,30.10,29.57,5,-398,9,0.48
2013-11-27,46.4,19.1,33.7,46.0,-33.4,-99.9,99,45,74,30.14,29.48,10,-514,16,0.16
2013-11-28,43.9,19.1,23.5,27.0,-32.1,-99.9,94,37,45,30.50,30.15,6,-452,9,0.16
2013-11-29,48.6,22.0,26.6,30.0,-31.8,-99.9,99,33,44,30.64,30.48,7,-467,12,0.00
2013-11-30,48.8,22.4,29.1,37.0,-26.7,-99.9,95,42,63,30.64,30.37,9,-451,10,0.00
2013-12-1,59.8,25.4,28.3,41.0,-27.1,-99.9,99,37,37,30.36,30.03,3,-468,7,0.00
2013-12-2,58.8,25.9,35.2,46.0,-24.6,-99.9,98,41,48,30.02,29.83,4,-462,5,0.00
2013-12-3,59.2,26.8,34.5,49.0,-25.7,-99.9,100,40,62,30.00,29.87,2,-489,8,0.01
2013-12-4,66.5,32.9,52.5,60.0,-13.4,-99.9,96,50,77,30.09,29.99,2,-446,5,0.00
2013-12-5,67.2,33.5,55.4,64.0,-13.4,-99.9,100,51,88,30.14,30.04,5,-462,8,0.00
2013-12-6,78.3,42.9,65.2,67.0,-1.8,-99.9,95,47,67,30.08,29.97,8,-405,17,0.00
2013-12-7,45.6,23.7,41.9,42.0,-24.8,-99.9,96,46,76,30.46,29.98,12,-460,15,0.00
2013-12-8,34.6,17.7,33.2,34.0,-30.4,-99.9,100,51,97,30.46,30.30,11,-477,12,0.13
2013-12-9,45.3,21.3,37.1,45.0,-28.8,-99.9,100,50,99,30.31,30.06,2,-499,4,0.12
2013-12-10,46.2,22.6,34.3,46.0,-24.6,-99.9,99,50,78,30.32,29.92,10,-462,12,0.19
2013-12-11,49.6,20.9,24.8,33.0,-31.2,-99.9,99,38,42,30.45,30.29,5,-468,8,0.01
2013-12-12,44.2,19.3,25.5,26.0,-37.0,-99.9,88,29,31,30.41,30.26,10,-482,14,0.01
2013-12-13,51.7,22.3,25.7,31.0,-31.9,-99.9,92,31,33,30.40,30.28,7,-456,10,0.00
2013-12-14,46.6,19.4,39.5,42.0,-37.8,-99.9,98,38,60,30.31,29.77,5,-551,9,0.82
2013-12-15,53.8,23.6,41.2,45.0,-30.4,-99.9,99,37,57,30.06,29.69,10,-498,16,0.82
2013-12-16,55.3,23.2,30.0,37.0,-29.6,-99.9,96,37,47,30.18,30.05,4,-478,6,0.00
2013-12-17,61.5,26.5,35.6,42.0,-28.3,-99.9,98,34,46,30.12,29.87,5,-488,12,0.01
2013-12-18,48.7,20.8,28.9,27.0,-36.4,-99.9,89,28,37,30.29,30.02,8,-488,13,0.00
2013-12-19,61.6,26.2,31.0,35.0,-32.5,-99.9,89,25,30,30.33,30.22,5,-483,11,0.00
2013-12-20,66.3,31.6,41.2,57.0,-18.9,-99.9,97,41,68,30.25,30.12,6,-467,8,0.00
2013-12-21,73.8,35.0,50.8,65.0,-14.5,-99.9,99,45,69,30.16,30.05,6,-468,12,0.00
2013-12-22,78.7,36.5,66.0,69.0,-16.8,-99.9,92,40,66,30.10,30.03,5,-499,15,0.00
2013-12-23,69.3,30.7,51.7,69.0,-21.1,-99.9,99,47,93,30.13,29.98,9,-515,16,0.93
2013-12-24,46.1,21.9,35.8,34.0,-30.7,-99.9,83,35,54,30.45,30.10,11,-466,14,0.93
2013-12-25,39.5,16.2,24.3,22.0,-38.6,-99.9,85,31,42,30.56,30.39,10,-478,10,0.00
2013-12-26,49.8,19.4,28.8,36.0,-33.4,-99.9,99,41,57,30.41,30.25,3,-499,6,0.01
2013-12-27,51.5,21.2,26.2,31.0,-34.6,-99.9,94,32,36,30.46,30.36,3,-489,6,0.00
2013-12-28,60.0,24.6,25.8,39.0,-29.4,-99.9,99,35,33,30.40,30.17,4,-473,6,0.00
2013-12-29,65.1,23.4,47.3,65.0,-34.9,-99.9,100,41,91,30.16,29.64,10,-577,17,0.47
2013-12-30,55.9,24.4,37.5,48.0,-28.3,-99.9,100,42,62,30.13,29.91,4,-499,6,0.47
2013-12-31,50.3,23.0,34.5,39.0,-30.2,-99.9,96,36,39,30.35,30.11,5,-473,12,0.00
2014-1-1,51.2,23.5,37.3,35.0,-32.6,-99.9,88,30,39,30.38,30.15,4,-485,8,0.00
2014-1-2,47.8,21.1,41.1,46.0,-34.5,-99.9,98,41,75,30.14,29.56,1,-542,3,0.22